Weather History for KPPQ - April, 2013

Change the Weather History Date:

Friday, April 5, 2013

  Actual Average (KUIN) Record (KUIN)
Temperature  
Mean Temperature 52 °F 50 °F  
Max Temperature 63 °F 60 °F 84 °F (1942)
Min Temperature 40 °F 39 °F 15 °F (1929)
Degree Days  
Heating Degree Days 14 16  
Month to date heating degree days 82  
Since 1 July heating degree days 5142  
Cooling Degree Days 0 0  
Month to date cooling degree days 0  
Year to date cooling degree days 2  
Growing Degree Days 2 (Base 50)    
Moisture  
Dew Point 32 °F    
Average Humidity 49    
Maximum Humidity 74    
Minimum Humidity 30    
Precipitation  
Precipitation 0.00 in 0.11 in 2.78 in (1964)
Month to date precipitation 0.54  
Year to date precipitation 6.40  
Sea Level Pressure  
Sea Level Pressure 30.11 in    
Wind  
Wind Speed 6 mph (NE)    
Max Wind Speed 10 mph    
Max Gust Speed -    
Visibility 10 miles    
Events      
T = Trace of Precipitation, MM = Missing Value Source: NWS Daily Summary

Daily Weather History Graph

Daily Weather History Graph

Search for Another Location

Airport or City:

Trip Planner

Search our weather history database for the weather conditions in past years. The results will help you decide how hot, cold, wet, or windy it might be!

Date:

Astronomy

Apr. 05, 2013 Rise Set
Actual Time 6:40 AM CDT 7:31 PM CDT
Civil Twilight 6:13 AM CDT 7:58 PM CDT
Nautical Twilight 5:40 AM CDT 8:31 PM CDT
Astronomical Twilight 5:07 AM CDT 9:04 PM CDT
Moon 3:47 AM CDT (4/5) 2:56 PM CDT (4/5)
Length of Visible Light 13h 45m
Length of Day
12h 50m
Waning Crescent, 23% of the Moon is Illuminated
Apr 5
Waning Crescent
Apr 10
New
Apr 18
First Quarter
Apr 25
Full
May 2
Last Quarter

Hourly Weather History & Observations

Time (CDT) Temp. Windchill Dew Point Humidity Pressure Visibility Wind Dir Wind Speed Gust Speed Precip Events Conditions
12:15 AM 43.3 °F 39.9 °F 31.5 °F 63% 30.06 in 10.0 mi WSW 5.8 mph - N/A   Clear
12:35 AM 43.9 °F 40.5 °F 30.4 °F 59% 30.06 in 10.0 mi WSW 5.8 mph - N/A   Clear
12:55 AM 43.2 °F 39.0 °F 30.9 °F 62% 30.06 in 10.0 mi WSW 6.9 mph - N/A   Clear
1:15 AM 43.9 °F 41.3 °F 30.2 °F 59% 30.07 in 10.0 mi WSW 4.6 mph - N/A   Clear
1:35 AM 43.3 °F 40.7 °F 30.0 °F 59% 30.07 in 10.0 mi West 4.6 mph - N/A   Clear
1:55 AM 44.2 °F 41.0 °F 29.3 °F 56% 30.07 in 10.0 mi West 5.8 mph - N/A   Clear
2:15 AM 43.3 °F 40.7 °F 29.5 °F 58% 30.07 in 10.0 mi WNW 4.6 mph - N/A   Clear
2:35 AM 43.9 °F 39.9 °F 29.3 °F 57% 30.07 in 10.0 mi WNW 6.9 mph - N/A   Clear
2:55 AM 44.4 °F 40.5 °F 29.5 °F 56% 30.08 in 10.0 mi NW 6.9 mph - N/A   Clear
3:15 AM 43.0 °F 38.8 °F 29.8 °F 60% 30.08 in 10.0 mi NW 6.9 mph - N/A   Clear
3:35 AM 45.5 °F 40.8 °F 33.4 °F 63% 30.09 in 10.0 mi North 9.2 mph - N/A   Clear
3:55 AM 45.7 °F 40.6 °F 33.8 °F 63% 30.09 in 10.0 mi North 10.4 mph - N/A   Clear
4:15 AM 44.8 °F 39.9 °F 33.6 °F 65% 30.10 in 10.0 mi North 9.2 mph - N/A   Clear
4:35 AM 43.7 °F 40.3 °F 34.0 °F 69% 30.11 in 10.0 mi North 5.8 mph - N/A   Clear
4:55 AM 43.0 °F 38.8 °F 33.8 °F 70% 30.11 in 10.0 mi North 6.9 mph - N/A   Clear
5:15 AM 42.4 °F 38.8 °F 33.8 °F 71% 30.12 in 10.0 mi North 5.8 mph - N/A   Clear
5:35 AM 41.9 °F 38.2 °F 33.8 °F 73% 30.12 in 10.0 mi North 5.8 mph - N/A   Clear
5:55 AM 41.7 °F 37.3 °F 33.8 °F 73% 30.13 in 10.0 mi North 6.9 mph - N/A   Clear
6:15 AM 41.2 °F 36.6 °F 33.4 °F 74% 30.14 in 10.0 mi North 6.9 mph - N/A   Clear
6:35 AM 41.7 °F 37.3 °F 33.1 °F 71% 30.14 in 10.0 mi North 6.9 mph - N/A   Clear
6:55 AM 40.8 °F 36.2 °F 32.9 °F 73% 30.15 in 10.0 mi North 6.9 mph - N/A   Clear
7:15 AM 41.0 °F 35.8 °F 33.1 °F 73% 30.15 in 10.0 mi North 8.1 mph - N/A   Clear
7:35 AM 41.7 °F 36.7 °F 33.3 °F 72% 30.16 in 10.0 mi North 8.1 mph - N/A   Clear
7:55 AM 42.8 °F 37.5 °F 33.1 °F 69% 30.16 in 10.0 mi North 9.2 mph - N/A   Clear
8:15 AM 43.3 °F 39.2 °F 33.1 °F 67% 30.17 in 10.0 mi North 6.9 mph - N/A   Clear
8:35 AM 44.6 °F 40.7 °F 33.1 °F 64% 30.17 in 10.0 mi NNE 6.9 mph - N/A   Clear
8:55 AM 45.9 °F 42.3 °F 32.9 °F 61% 30.18 in 10.0 mi NNE 6.9 mph - N/A   Clear
9:15 AM 47.7 °F - 32.4 °F 55% 30.18 in 10.0 mi NE 8.1 mph - N/A   Clear
9:35 AM 48.2 °F - 32.2 °F 54% 30.18 in 10.0 mi NNE 9.2 mph - N/A   Clear
9:55 AM 49.3 °F - 33.1 °F 54% 30.20 in 10.0 mi North 6.9 mph - N/A   Clear
10:15 AM 49.8 °F - 32.4 °F 51% 30.20 in 10.0 mi ENE 5.8 mph - N/A   Clear
10:35 AM 51.3 °F - 32.5 °F 49% 30.20 in 10.0 mi ENE 5.8 mph - N/A   Clear
10:55 AM 52.2 °F - 32.7 °F 48% 30.20 in 10.0 mi North 5.8 mph - N/A   Clear
11:15 AM 52.9 °F - 32.2 °F 45% 30.19 in 10.0 mi East 8.1 mph - N/A   Scattered Clouds
11:35 AM 54.3 °F - 32.5 °F 44% 30.19 in 10.0 mi ENE 3.5 mph - N/A   Scattered Clouds
11:55 AM 55.4 °F - 31.5 °F 40% 30.19 in 10.0 mi ENE 5.8 mph - N/A   Clear
12:15 PM 56.1 °F - 30.9 °F 38% 30.18 in 10.0 mi East 6.9 mph - N/A   Clear
12:35 PM 56.5 °F - 28.4 °F 34% 30.18 in 10.0 mi NNE 6.9 mph - N/A   Scattered Clouds
12:55 PM 57.4 °F - 29.7 °F 35% 30.17 in 10.0 mi Calm Calm - N/A   Scattered Clouds
1:15 PM 57.9 °F - 30.4 °F 35% 30.16 in 10.0 mi North 4.6 mph - N/A   Clear
1:35 PM 58.6 °F - 30.4 °F 34% 30.15 in 10.0 mi Calm Calm - N/A   Clear
1:55 PM 58.5 °F - 28.8 °F 32% 30.15 in 10.0 mi Calm Calm - N/A   Clear
2:15 PM 59.7 °F - 28.9 °F 31% 30.14 in 10.0 mi Calm Calm - N/A   Clear
2:35 PM 60.6 °F - 29.8 °F 31% 30.13 in 10.0 mi West 4.6 mph - N/A   Clear
2:55 PM 61.2 °F - 32.0 °F 33% 30.11 in 10.0 mi East 5.8 mph - N/A   Clear
3:15 PM 62.2 °F - 32.7 °F 33% 30.11 in 10.0 mi South 5.8 mph - N/A   Clear
3:35 PM 61.3 °F - 31.3 °F 32% 30.10 in 10.0 mi Calm Calm - N/A   Clear
3:55 PM 61.5 °F - 30.7 °F 31% 30.10 in 10.0 mi Calm Calm - N/A   Clear
4:15 PM 61.7 °F - 30.2 °F 30% 30.10 in 10.0 mi Calm Calm - N/A   Clear
4:35 PM 62.1 °F - 30.7 °F 31% 30.09 in 10.0 mi Calm Calm - N/A   Clear
4:55 PM 62.2 °F - 31.1 °F 31% 30.09 in 10.0 mi Calm Calm - N/A   Clear
5:15 PM 62.2 °F - 30.2 °F 30% 30.08 in 10.0 mi Calm Calm - N/A   Clear
5:35 PM 62.8 °F - 30.6 °F 30% 30.08 in 10.0 mi Calm Calm - N/A   Clear
5:55 PM 63.1 °F - 31.6 °F 31% 30.08 in 10.0 mi Calm Calm - N/A   Clear
6:15 PM 62.6 °F - 30.7 °F 30% 30.08 in 10.0 mi Calm Calm - N/A   Clear
6:35 PM 61.9 °F - 31.8 °F 32% 30.07 in 10.0 mi ESE 4.6 mph - N/A   Clear
6:55 PM 59.9 °F - 32.0 °F 35% 30.07 in 10.0 mi East 4.6 mph - N/A   Clear
7:15 PM 58.6 °F - 31.6 °F 36% 30.06 in 10.0 mi East 4.6 mph - N/A   Clear
7:35 PM 58.8 °F - 31.1 °F 35% 30.06 in 10.0 mi East 4.6 mph - N/A   Clear
7:55 PM 57.0 °F - 31.8 °F 38% 30.06 in 10.0 mi East 4.6 mph - N/A   Clear
8:15 PM 56.5 °F - 32.7 °F 41% 30.06 in 10.0 mi East 6.9 mph - N/A   Clear
8:35 PM 56.3 °F - 33.1 °F 41% 30.05 in 10.0 mi East 6.9 mph - N/A   Clear
8:55 PM 55.4 °F - 34.2 °F 45% 30.05 in 10.0 mi ESE 8.1 mph - N/A   Clear
9:15 PM 55.4 °F - 34.9 °F 46% 30.05 in 10.0 mi ESE 9.2 mph - N/A   Clear
9:35 PM 54.9 °F - 35.4 °F 48% 30.05 in 10.0 mi ESE 9.2 mph - N/A   Clear
9:55 PM 54.7 °F - 36.0 °F 49% 30.05 in 10.0 mi ESE 9.2 mph - N/A   Clear
10:15 PM 54.7 °F - 35.8 °F 49% 30.05 in 10.0 mi ESE 9.2 mph - N/A   Clear
10:35 PM 54.0 °F - 36.1 °F 51% 30.04 in 10.0 mi ESE 8.1 mph - N/A   Clear
10:55 PM 54.0 °F - 35.4 °F 50% 30.04 in 10.0 mi SE 8.1 mph - N/A   Clear
11:15 PM 54.5 °F - 34.7 °F 47% 30.03 in 10.0 mi SE 9.2 mph - N/A   Clear
11:35 PM 53.8 °F - 35.4 °F 50% 30.03 in 10.0 mi ESE 10.4 mph - N/A   Clear
11:55 PM 53.6 °F - 35.8 °F 51% 30.03 in 10.0 mi SE 9.2 mph - N/A   Clear